User: anonymous   Login
Location: Unspecified
(0.0000°N, 0.0000°E)
Time: 18:35:10
(UTC+00:00)
Language:

KANOPUS-V 3 - Orbit

View from above orbital plane
View from above orbital plane
View from above satellite
View from above satellite

Ground track
Ground track

The orbit data is extracted from the following two-line orbital elements,

1 43180U 18014A   18197.10885819  .00000151  00000-0  10467-4 0  9995
2 43180  97.4570 104.9608 0001359  83.0183  28.6690 15.18885381 25049
Epoch (UTC): 16 July 2018 02:36:45
Eccentricity: 0.0001359
inclination: 97.4570°
perigee height: 508 km
apogee height: 510 km
right ascension of ascending node: 104.9608°
argument of perigee: 83.0183°
revolutions per day: 15.18885381
mean anomaly at epoch: 28.6690°
orbit number at epoch: 2504

The dashed part of the orbit path shows where the satellite is in the earth's shadow,  

DLR